Regional Weather Roundup
Issued by NWS Cleveland, OH

Home | Current Version | Previous Version | Graphics & Text | Print | Product List | Glossary On
Versions: 1 2 3 4 5 6 7 8 9 10 11 12 13 14 15 16 17 18 19 20 21 22 23 24 25 26 27 28 29 30 31 32 33 34 35 36 37 38 39 40 41 42 43 44 45 46 47 48 49 50
000
ASUS41 KCLE 192300
RWRCLE
OHIO REGIONAL WEATHER ROUNDUP
NATIONAL WEATHER SERVICE WILMINGTON, OH
700 PM EDT TUE AUG 19 2014

NOTE: "FAIR" INDICATES FEW OR NO CLOUDS BELOW 12,000 FEET WITH NO
SIGNIFICANT WEATHER AND/OR OBSTRUCTIONS TO VISIBILITY.

OHZ001>008-015>018-024>027-034-035-043-044-200000-
   NORTHWEST OHIO

CITY           SKY/WX    TMP DP  RH WIND       PRES   REMARKS
DEFIANCE       CLOUDY    71  67  87 SW3       29.80S THUNDER FOG
FINDLAY        MOSUNNY   83  67  58 W9        29.79R
TOLEDO EXPRESS TSTM      67  65  93 N9        29.81F
TOLEDO METCALF LGT RAIN  68  64  87 NW15      29.82R
LIMA           MOSUNNY   82  69  64 W6        29.81R
$$

OHZ009>014-019>023-028>033-038-089-200000-
   NORTHEAST OHIO

CITY           SKY/WX    TMP DP  RH WIND       PRES   REMARKS
CLE-HOPKINS    TSTM      77  67  71 SW10G22   29.81S
CLE-LAKEFRONT  MOSUNNY   77  69  76 N5        29.78S
CUY CO. ARPT   PTSUNNY   84  68  58 S12       29.81S
LORAIN-ELYRIA  MOSUNNY   83  68  60 SW6       29.80S
ASHTABULA      SUNNY     80  65  59 S5        29.83S
AKRON-CANTON   MOSUNNY   83  64  52 SW6       29.84R
WOOSTER        NOT AVBL
MANSFIELD      PTSUNNY   84  68  58 SW6       29.83S
YOUNGSTOWN     MOSUNNY   81  64  56 S5        29.84S
$$

OHZ042-051>053-060>062-070>072-077>081-200000-
  SOUTHWEST OHIO

CITY           SKY/WX    TMP DP  RH WIND       PRES   REMARKS
CINC-COVINGTON PTSUNNY   83  66  56 S6        29.82S
CINC-LUNKEN    MOSUNNY   85  67  54 SW12      29.81R
HAMILTON       SUNNY     86  69  56 SW7       29.81S HX  90
DAYTON         NOT AVBL
WRIGHT-PAT AFB SUNNY     87  66  50 W12       29.81R
DAYTON GENERAL MOSUNNY   85  66  53 SW9       29.81S
WILMINGTON     SUNNY     84  67  56 SW7       29.82S
$$

OHZ036-037-039>041-045>050-054>059-063>069-073>076-082>088-200000-
  CENTRAL AND SOUTHEAST OHIO

CITY           SKY/WX    TMP DP  RH WIND       PRES   REMARKS
COLUMBUS       MOSUNNY   88  64  44 W12       29.80F
OSU AIRPORT    MOSUNNY   85  68  56 SW10      29.81S
BOLTON FIELD   NOT AVBL
RICKENBACK AFB NOT AVBL
NEWARK         MOSUNNY   83  69  62 S5        29.81F
MARION         PTSUNNY   85  67  54 W7        29.81S
LANCASTER      MOSUNNY   84  70  62 S5        29.82S
ZANESVILLE     SUNNY     83  68  60 SW3       29.83R
NEW PHILLY     SUNNY     81  70  69 S3        29.84R
$$


USA.gov is the U.S. government's official web portal to all federal, state and local government web resources and services.